CW8428 Weather Reports


Display with metric or nautical units.
time (UTC)temp
F
wind
direction
speed
MPH
gust
MPH
rain 1hr
in
rain 24hr
in
rain mn
in
humidity
%
barometer
mb
20260831001628 77 302 8.0 11.0 0.00 0.08 0.08 32 1017.3
20260831000613 77 269 7.0 10.0 0.00 0.08 0.08 33 1017.4
20260830235636 77 268 7.0 13.0 0.00 0.08 0.08 35 1017.3
20260830234626 78 279 8.0 12.0 0.00 0.08 0.08 34 1017.4
20260830233615 78 271 4.0 15.0 0.00 0.08 0.08 31 1017.3
20260830232626 78 260 8.0 11.0 0.00 0.08 0.08 36 1017.3
20260830231620 78 355 3.0 11.0 0.00 0.08 0.08 32 1017.3
20260830230627 78 302 7.0 13.0 0.00 0.08 0.08 35 1017.2
20260830225630 78 276 11.0 13.0 0.00 0.08 0.08 36 1017.2
20260830224640 78 344 7.0 12.0 0.00 0.08 0.08 35 1017.4
20260830223613 77 290 5.0 11.0 0.00 0.08 0.08 35 1017.4
20260830222622 78 261 7.0 15.0 0.00 0.08 0.08 36 1017.5
20260830221612 78 279 11.0 15.0 0.00 0.08 0.08 37 1017.6
20260830220622 78 257 9.0 15.0 0.00 0.08 0.08 37 1017.6
20260830215627 77 241 7.0 13.0 0.00 0.09 0.08 37 1017.5
20260830214618 77 261 8.0 12.0 0.00 0.09 0.08 40 1017.6
20260830213627 76 282 5.0 11.0 0.00 0.09 0.08 42 1017.7
20260830212621 77 274 8.0 11.0 0.00 0.09 0.08 38 1017.9
20260830211631 78 265 6.0 10.0 0.00 0.09 0.08 35 1018.0
20260830210643 77 231 6.0 10.0 0.00 0.09 0.08 41 1018.0
20260830205623 77 271 4.0 10.0 0.00 0.12 0.08 39 1018.0
20260830204616 77 226 9.0 13.0 0.00 0.12 0.08 38 1018.2
20260830203626 77 210 9.0 13.0 0.00 0.12 0.08 36 1018.2
20260830202616 77 273 7.0 12.0 0.00 0.12 0.08 38 1018.3
20260830201626 77 193 6.0 14.0 0.00 0.12 0.08 39 1018.2
20260830200620 77 246 6.0 12.0 0.00 0.12 0.08 40 1018.3
20260830195644 76 202 5.0 15.0 0.00 0.12 0.08 37 1018.4
20260830194614 76 190 7.0 10.0 0.00 0.12 0.08 37 1018.4
20260830193624 76 208 4.0 13.0 0.00 0.12 0.08 44 1018.5
20260830192619 75 259 3.0 9.0 0.00 0.12 0.08 45 1018.5
20260830191651 76 244 3.0 10.0 0.00 0.12 0.08 44 1018.5
20260830190620 76 294 5.0 11.0 0.00 0.12 0.08 43 1018.4
20260830185624 75 231 6.0 9.0 0.00 0.13 0.08 47 1018.5
20260830184618 75 257 2.0 8.0 0.00 0.13 0.08 43 1018.5
20260830183629 74 274 7.0 12.0 0.00 0.13 0.08 46 1018.5
20260830182640 74 261 6.0 11.0 0.00 0.13 0.08 46 1018.4
20260830181628 74 259 4.0 6.0 0.00 0.13 0.08 44 1018.4
20260830180623 73 314 3.0 7.0 0.00 0.13 0.08 52 1018.5
20260830175630 73 275 3.0 8.0 0.00 0.16 0.08 52 1018.5
20260830174620 73 286 4.0 5.0 0.00 0.16 0.08 55 1018.6
20260830173630 72 256 1.0 4.0 0.00 0.16 0.08 61 1018.6
20260830172641 71 250 1.0 4.0 0.00 0.16 0.08 63 1018.6
20260830171614 70 246 2.0 4.0 0.00 0.16 0.08 65 1018.6
20260830170624 69 342 1.0 4.0 0.00 0.16 0.08 65 1018.7
20260830165625 69 355 4.0 7.0 0.00 0.30 0.08 65 1018.7
20260830164635 69 355 1.0 8.0 0.00 0.30 0.08 68 1018.7
20260830163625 68 28 3.0 11.0 0.00 0.30 0.08 68 1018.5
20260830162619 67 87 7.0 11.0 0.00 0.30 0.08 68 1018.5
20260830161630 66 109 7.0 11.0 0.00 0.30 0.08 70 1018.5
20260830160628 66 22 2.0 5.0 0.00 0.30 0.08 76 1018.6
20260830155613 65 28 1.0 5.0 0.00 0.32 0.08 77 1018.6
20260830154624 64 28 1.0 4.0 0.00 0.32 0.08 78 1018.6
20260830153614 64 33 3.0 10.0 0.00 0.32 0.08 79 1018.7
20260830152624 63 114 7.0 12.0 0.00 0.32 0.08 79 1018.7
20260830151638 62 99 8.0 13.0 0.00 0.32 0.08 81 1018.5
20260830150628 62 148 5.0 9.0 0.00 0.32 0.08 82 1018.8
20260830145630 61 14 1.0 4.0 0.00 0.34 0.08 85 1018.9
20260830144620 61 5 2.0 5.0 0.00 0.34 0.08 86 1019.2
20260830143614 60 27 4.0 9.0 0.00 0.34 0.08 88 1019.1
20260830142625 59 280 2.0 4.0 0.00 0.34 0.08 89 1019.1
20260830141616 59 340 1.0 3.0 0.00 0.34 0.08 90 1018.6
20260830140628 58 340 3.0 6.0 0.00 0.34 0.08 89 1019.1
20260830135637 58 159 3.0 5.0 0.00 0.34 0.08 90 1019.1
20260830134627 58 159 1.0 6.0 0.00 0.34 0.08 89 1019.0
20260830133618 58 160 4.0 6.0 0.00 0.34 0.08 89 1018.8
20260830132650 58 30 0.0 3.0 0.00 0.34 0.08 89 1018.7
20260830131625 58 30 1.0 8.0 0.00 0.34 0.08 89 1018.9
20260830130616 57 135 3.0 5.0 0.00 0.34 0.08 89 1019.1
20260830125619 57 104 3.0 8.0 0.01 0.37 0.08 89 1018.7
20260830124630 57 109 4.0 9.0 0.01 0.37 0.08 89 1018.5
20260830123625 58 164 7.0 7.0 0.01 0.37 0.08 89 1018.5
20260830122615 58 152 7.0 10.0 0.01 0.37 0.08 89 1018.4
20260830121626 58 140 6.0 9.0 0.01 0.37 0.08 89 1018.2
20260830120618 59 84 2.0 4.0 0.01 0.37 0.08 88 1018.2
20260830115622 59 5 0.0 2.0 0.00 0.36 0.07 87 1018.5
20260830114614 59 5 2.0 4.0 0.00 0.36 0.07 87 1018.3
20260830113644 59 5 2.0 3.0 0.00 0.36 0.07 86 1018.4
20260830112613 59 5 0.0 4.0 0.00 0.36 0.07 86 1018.2
20260830111627 59 5 4.0 5.0 0.00 0.36 0.07 85 1018.2
20260830110616 59 163 7.0 12.0 0.00 0.36 0.07 85 1018.7
20260830105638 58 146 6.0 11.0 0.00 0.36 0.07 85 1017.9
20260830104648 59 145 8.0 14.0 0.00 0.36 0.07 85 1017.9
20260830103621 58 148 5.0 9.0 0.02 0.36 0.07 87 1017.9
20260830102631 58 145 5.0 14.0 0.06 0.36 0.07 87 1018.0
20260830101622 59 136 7.0 11.0 0.07 0.36 0.07 86 1018.0
20260830100612 59 130 8.0 11.0 0.07 0.36 0.07 85 1017.9
20260830095619 60 115 4.0 9.0 0.07 0.36 0.07 85 1017.9
20260830094629 59 338 5.0 13.0 0.07 0.36 0.07 87 1018.0
20260830093619 59 360 7.0 10.0 0.04 0.33 0.04 86 1018.8
20260830092629 60 229 3.0 5.0 0.01 0.30 0.01 85 1019.1
20260830091624 60 161 5.0 7.0 0.00 0.29 0.00 85 1018.3
20260830090616 60 355 1.0 4.0 0.00 0.29 0.00 84 1017.5
20260830085618 60 115 3.0 8.0 0.00 0.30 0.00 83 1017.5
20260830084628 60 127 6.0 9.0 0.00 0.30 0.00 82 1017.9
20260830083642 60 140 6.0 13.0 0.00 0.30 0.00 80 1017.8
20260830082652 60 144 4.0 10.0 0.00 0.30 0.00 85 1017.4
20260830081643 60 146 7.0 10.0 0.00 0.30 0.00 87 1017.5
20260830080621 59 134 4.0 8.0 0.00 0.30 0.00 88 1017.9
20260830075621 59 233 3.0 4.0 0.00 0.30 0.00 89 1017.6
20260830074614 60 257 0.0 0.0 0.00 0.30 0.00 88 1017.7
20260830073626 60 257 0.0 3.0 0.00 0.30 0.00 88 1017.9
20260830072615 60 258 1.0 2.0 0.00 0.30 0.00 88 1017.7
20260830071630 60 258 0.0 1.0 0.00 0.30 0.00 87 1017.8
20260830070642 60 258 3.0 4.0 0.00 0.30 0.00 88 1017.4
20260830065623 60 341 1.0 3.0 0.00 0.42 0.00 87 1017.4
20260830064613 60 344 2.0 3.0 0.00 0.42 0.00 87 1017.5
20260830063626 60 345 0.0 1.0 0.00 0.42 0.00 86 1017.4
20260830062631 61 345 1.0 5.0 0.00 0.42 0.00 85 1017.2
20260830061621 61 284 2.0 7.0 0.00 0.42 0.00 84 1017.0
20260830060634 61 243 4.0 7.0 0.00 0.42 0.00 83 1016.9
20260830055613 62 211 4.0 7.0 0.00 0.69 0.42 80 1016.6
20260830054628 64 229 7.0 11.0 0.00 0.69 0.42 76 1016.6
20260830053620 63 313 3.0 14.0 0.00 0.69 0.42 76 1016.4
20260830052630 64 156 10.0 15.0 0.00 0.69 0.42 75 1017.0
20260830051621 63 76 9.0 13.0 0.00 0.69 0.42 78 1016.8
20260830050616 62 105 2.0 6.0 0.00 0.69 0.42 84 1016.9
20260830045619 61 157 0.0 3.0 0.00 0.69 0.42 84 1017.1
20260830044630 61 157 3.0 7.0 0.00 0.69 0.42 83 1017.2
20260830043621 62 224 3.0 4.0 0.00 0.69 0.42 83 1017.0
20260830042616 62 298 1.0 3.0 0.00 0.69 0.42 83 1017.2
20260830041627 62 298 0.0 3.0 0.00 0.69 0.42 82 1017.1
20260830040618 62 298 2.0 3.0 0.00 0.69 0.42 82 1017.0
20260830035621 62 298 2.0 3.0 0.00 0.69 0.42 80 1016.6
20260830034637 62 298 0.0 3.0 0.00 0.69 0.42 80 1016.5
20260830033627 63 298 2.0 4.0 0.00 0.69 0.42 79 1016.4
20260830032617 64 302 3.0 6.0 0.00 0.69 0.42 76 1016.2
20260830031613 65 23 0.0 5.0 0.00 0.69 0.42 75 1015.9
20260830030624 65 122 2.0 4.0 0.00 0.69 0.42 74 1015.8
20260830025627 65 126 6.0 12.0 0.00 0.69 0.42 74 1015.7
20260830024637 65 137 9.0 13.0 0.00 0.69 0.42 74 1015.6
20260830023647 66 107 8.0 15.0 0.00 0.69 0.42 73 1015.4
20260830022622 66 126 10.0 14.0 0.00 0.69 0.42 73 1015.3
20260830021613 66 98 9.0 15.0 0.00 0.69 0.42 73 1015.7
20260830020624 67 105 6.0 11.0 0.00 0.69 0.42 71 1016.2
20260830015648 67 115 2.0 9.0 0.00 0.69 0.42 71 1016.5
20260830014622 67 109 4.0 10.0 0.00 0.69 0.42 71 1017.1
20260830013634 67 119 5.0 9.0 0.00 0.69 0.42 71 1017.0
20260830012624 67 98 6.0 8.0 0.00 0.69 0.42 71 1017.1
20260830011613 67 124 5.0 12.0 0.00 0.69 0.42 71 1016.9
20260830010626 67 134 7.0 12.0 0.00 0.69 0.42 70 1016.8
20260830005628 68 119 5.0 10.0 0.00 0.69 0.42 69 1016.6
20260830004617 68 82 8.0 12.0 0.00 0.69 0.42 68 1016.7
20260830003614 69 107 4.0 13.0 0.00 0.69 0.42 67 1016.9
20260830002623 69 67 5.0 11.0 0.00 0.69 0.42 66 1016.6